[[{"header":{"parameterUnit":"m.s-1","parameterCategory":1,"la1":30.2992,"la2":30.254,"lo1":-89.0895,"lo2":-89.0443,"dy":0.0025,"dx":0.0025,"nx":19,"ny":19,"refTime":"2026-03-07T03:00:00:Z","depth":0,"parameterNumber":2,"parameterNumberName":"U-component_of_WINDS"},"data":[0,0,0,-2.0719,-2.072,-2.0766,-2.0766,-2.0824,-2.0824,0,0,0,0,0,0,0,0,0,0,0,-2.0704,-2.0704,-2.0718,-2.072,-2.0766,-2.0766,-2.0824,-2.0824,0,0,0,0,0,0,0,0,0,0,0,-2.0704,-2.0704,-2.0705,-2.072,-2.0766,-2.0766,-2.0824,-2.0789,0,0,0,0,0,0,0,0,0,0,-2.0744,-2.073,-2.0704,-2.0705,-2.072,-2.0766,-2.0766,-2.0788,-2.0791,-2.0802,0,-2.0812,0,-2.0819,-2.0828,-2.0828,0,0,0,-2.072,-2.0727,-2.074,-2.0705,-2.072,-2.0766,-2.0745,-2.079,-2.0794,-2.0807,-2.0812,-2.0815,-2.082,-2.0828,-2.0829,-2.0889,-2.0889,0,0,-2.0718,-2.0712,-2.0737,-2.0743,-2.0736,-2.0744,-2.0747,-2.0792,-2.0798,-2.0813,-2.0816,-2.0821,-2.0829,-2.0829,-2.0889,-2.0889,0,0,0,-2.071,-2.071,-2.0722,-2.0741,-2.0749,-2.0745,-2.0748,-2.0796,-2.08,-2.0817,-2.0821,-2.0829,-2.083,-2.0888,-2.0889,-2.0894,0,0,0,-2.0708,-2.0705,-2.0721,-2.0718,-2.0748,-2.0773,-2.0751,-2.0797,-2.0802,-2.0821,-2.0829,-2.083,-2.0888,-2.0889,-2.0893,-2.0897,0,0,0,-2.0701,-2.0705,-2.0711,-2.0717,-2.0737,-2.0772,-2.0779,-2.0798,-2.0805,-2.0828,-2.0831,-2.0888,-2.0888,-2.0893,-2.0896,-2.091,0,0,0,-2.0692,-2.0716,-2.0711,-2.074,-2.0737,-2.0776,-2.0779,-2.0809,-2.0829,-2.0829,-2.0888,-2.0889,-2.0892,-2.0895,-2.0909,-2.092,-2.0924,0,0,-2.0718,-2.0719,-2.0736,-2.0733,-2.0771,-2.0769,-2.0808,-2.0833,-2.0841,-2.0872,-2.0874,-2.0894,-2.0896,-2.091,-2.0952,-2.0955,0,0,0,-2.0742,-2.0754,-2.0766,-2.0785,-2.0805,-2.0821,-2.0841,-2.085,-2.0877,-2.0856,-2.0904,-2.0905,-2.0914,-2.0919,-2.0921,-2.0929,-2.0891,-2.0891,-2.0891,-2.077,-2.0779,-2.0808,-2.0822,-2.0841,-2.0861,-2.0877,-2.0893,-2.0897,-2.0908,-2.0917,-2.0941,-2.0947,-2.0949,-2.0957,-2.0925,-2.0925,-2.0925,-2.0925,-2.0808,-2.0826,-2.0831,-2.0861,-2.087,-2.0895,-2.0916,-2.0918,-2.0943,-2.0936,-2.0943,-2.0933,-2.0952,-2.0959,-2.0925,-2.0925,-2.0925,-2.0925,-2.0925,-2.0826,-2.0836,-2.0847,-2.0876,-2.0897,-2.0912,-2.0935,-2.0943,-2.0952,-2.096,-2.0969,-2.0969,-2.0969,-2.0964,-2.0964,-2.0964,-2.0964,-2.0964,-2.0964,-2.0839,-2.0851,-2.087,-2.0893,-2.0906,-2.0925,-2.0946,-2.096,-2.0977,-2.0981,-2.0981,-2.0983,-2.0953,-2.0945,-2.0966,-2.0965,-2.0965,-2.0965,-2.0965,-2.0871,-2.0865,-2.0893,-2.0907,-2.0935,-2.0955,-2.0966,-2.0993,-2.1006,-2.1017,-2.1018,-2.0995,-2.0996,-2.0993,-2.0986,-2.1017,-2.1017,-2.1017,-2.1017,-2.0885,-2.0886,-2.0917,-2.0938,-2.0959,-2.0972,-2.1004,-2.1021,-2.1037,-2.1046,-2.1043,-2.1035,-2.1033,-2.1035,-2.1032,-2.1025,-2.1064,-2.1064,-2.1064,-2.0904,-2.0909,-2.0933,-2.0949,-2.0972,-2.0991,-2.1021,-2.1045,-2.1063,-2.1066,-2.1052,-2.105,-2.1037,-2.1033,-2.1034,-2.1029,-2.1017,0,0]},{"header":{"parameterUnit":"m.s-1","parameterCategory":1,"la1":30.2992,"la2":30.254,"lo1":-89.0895,"lo2":-89.0443,"dy":0.0025,"dx":0.0025,"nx":19,"ny":19,"refTime":"2026-03-07T03:00:00:Z","depth":0,"parameterNumber":3,"parameterNumberName":"V-component_of_WINDS"},"data":[0,0,0,3.0388,3.039,3.0469,3.0469,3.056,3.0561,0,0,0,0,0,0,0,0,0,0,0,3.036,3.036,3.0388,3.039,3.0468,3.0469,3.056,3.0561,0,0,0,0,0,0,0,0,0,0,0,3.036,3.036,3.0361,3.039,3.0468,3.0469,3.056,3.0504,0,0,0,0,0,0,0,0,0,0,3.0429,3.0397,3.036,3.0361,3.0391,3.0468,3.0469,3.0501,3.0507,3.0521,0,3.0532,0,3.0548,3.0566,3.0567,0,0,0,3.0394,3.0392,3.0419,3.0361,3.0391,3.0468,3.0434,3.0505,3.0511,3.0529,3.0533,3.0537,3.0549,3.0567,3.0567,3.0636,3.0637,0,0,3.0389,3.0371,3.0414,3.0423,3.0411,3.0432,3.0436,3.0509,3.0512,3.0533,3.0539,3.0551,3.0567,3.0568,3.0636,3.0636,0,0,0,3.0374,3.0367,3.0392,3.0419,3.0434,3.0434,3.0439,3.0509,3.0519,3.054,3.0552,3.0568,3.0569,3.0636,3.0636,3.0627,0,0,0,3.0372,3.0359,3.039,3.0379,3.0432,3.0472,3.0438,3.0514,3.0522,3.0551,3.0568,3.057,3.0636,3.0636,3.0627,3.0626,0,0,0,3.0356,3.0357,3.0367,3.0378,3.0412,3.0472,3.0486,3.0516,3.0529,3.0567,3.057,3.0636,3.0636,3.0627,3.0626,3.064,0,0,0,3.0334,3.0356,3.0366,3.0395,3.0411,3.0465,3.0485,3.0527,3.0557,3.0568,3.0636,3.0636,3.0627,3.0626,3.064,3.0649,3.0651,0,0,3.0351,3.0357,3.0376,3.0388,3.0436,3.0455,3.0502,3.0547,3.0566,3.0612,3.0614,3.0627,3.0626,3.064,3.0667,3.0668,0,0,0,3.0375,3.0388,3.0405,3.0435,3.0471,3.0502,3.0542,3.0559,3.0599,3.0586,3.0636,3.0636,3.0645,3.065,3.0651,3.0661,3.0638,3.0638,3.0638,3.0371,3.0398,3.0431,3.0467,3.0495,3.0538,3.0564,3.0594,3.061,3.0621,3.0635,3.0649,3.0654,3.0655,3.0665,3.0641,3.0641,3.0641,3.0641,3.0399,3.0423,3.0447,3.0487,3.0515,3.0549,3.0592,3.0603,3.0639,3.064,3.0649,3.0648,3.0656,3.0666,3.0641,3.0641,3.0641,3.0641,3.0641,3.04,3.0416,3.0438,3.0485,3.0519,3.0555,3.0589,3.0612,3.0634,3.0644,3.0662,3.0662,3.0666,3.0651,3.0651,3.0651,3.0651,3.0651,3.0651,3.0393,3.0418,3.0445,3.0487,3.051,3.0544,3.0589,3.0613,3.0645,3.0659,3.0659,3.0675,3.0652,3.0646,3.0652,3.0651,3.0651,3.0651,3.0651,3.0411,3.0412,3.0453,3.0477,3.053,3.0563,3.0593,3.0639,3.0662,3.0679,3.0694,3.0673,3.068,3.0679,3.0674,3.0687,3.0687,3.0687,3.0687,3.0412,3.0419,3.0468,3.0505,3.0544,3.0577,3.0623,3.0659,3.0696,3.0712,3.0714,3.0709,3.0708,3.0716,3.0715,3.0711,3.0732,3.0733,3.0733,3.0426,3.0438,3.0473,3.0511,3.0555,3.0593,3.0638,3.0679,3.0721,3.0735,3.0726,3.0724,3.0717,3.0713,3.0726,3.0723,3.0716,0,0]}]]